• In Österreich
  • Länderverzeichnis
  • Für 7 Tage
  • Wassertemperatur
  • Satellitenkarten
  • Wetterkarte
  • News
  • Widgets
  • user-avatar
    Anmelden

    Stündliche Wetter Bolmow

    Heute, 18 Juni, Montag

    Zeit Temperatur Niederschläge Wind Luftdruck Luftfeuchtigkeit
    00:00 +19°C° 0,2 mm 2 m/S 752 mmHg 75%
    01:00 +18°C° 0,2 mm 2 m/S 752 mmHg 80%
    02:00 +18°C° 0 mm 2 m/S 752 mmHg 83%
    03:00 +17°C° 0 mm 2 m/S 752 mmHg 86%
    04:00 +17°C° 0 mm 2 m/S 752 mmHg 89%
    05:00 +17°C° 0,1 mm 3 m/S 753 mmHg 88%
    06:00 +17°C° 0,1 mm 3 m/S 753 mmHg 87%
    07:00 +18°C° 0,1 mm 4 m/S 753 mmHg 86%
    08:00 +19°C° 0 mm 4 m/S 753 mmHg 80%
    09:00 +20°C° 0 mm 4 m/S 753 mmHg 75%
    10:00 +21°C° 0 mm 4 m/S 754 mmHg 70%
    11:00 +22°C° 0 mm 4 m/S 754 mmHg 64%
    12:00 +23°C° 0 mm 4 m/S 754 mmHg 59%
    13:00 +25°C° 0 mm 4 m/S 754 mmHg 54%
    14:00 +25°C° 0 mm 4 m/S 754 mmHg 54%
    15:00 +25°C° 0 mm 3 m/S 754 mmHg 54%
    16:00 +25°C° 0 mm 3 m/S 753 mmHg 55%
    17:00 +24°C° 0 mm 3 m/S 754 mmHg 60%
    18:00 +22°C° 0 mm 3 m/S 754 mmHg 66%
    19:00 +21°C° 0 mm 2 m/S 754 mmHg 72%
    20:00 +20°C° 0 mm 2 m/S 754 mmHg 74%
    21:00 +19°C° 0 mm 2 m/S 755 mmHg 76%
    22:00 +17°C° 0 mm 2 m/S 755 mmHg 79%
    23:00 +17°C° 0 mm 2 m/S 755 mmHg 80%

    Morgen, 19 Juni, Dienstag

    Zeit Temperatur Niederschläge Wind Luftdruck Luftfeuchtigkeit
    00:00 +16°C° 0 mm 2 m/S 755 mmHg 80%
    01:00 +16°C° 0 mm 2 m/S 755 mmHg 81%
    02:00 +15°C° 0 mm 2 m/S 755 mmHg 81%
    03:00 +15°C° 0 mm 2 m/S 755 mmHg 82%
    04:00 +15°C° 0 mm 2 m/S 755 mmHg 82%
    05:00 +16°C° 0 mm 2 m/S 756 mmHg 78%
    06:00 +18°C° 0 mm 3 m/S 756 mmHg 74%
    07:00 +20°C° 0 mm 3 m/S 756 mmHg 71%
    08:00 +21°C° 0 mm 3 m/S 756 mmHg 68%
    09:00 +22°C° 0 mm 3 m/S 756 mmHg 65%
    10:00 +23°C° 0 mm 4 m/S 756 mmHg 62%
    11:00 +25°C° 0,1 mm 4 m/S 756 mmHg 61%
    12:00 +25°C° 0,1 mm 4 m/S 756 mmHg 60%
    13:00 +26°C° 0,1 mm 4 m/S 755 mmHg 60%
    14:00 +26°C° 0 mm 4 m/S 755 mmHg 59%
    15:00 +26°C° 0 mm 4 m/S 755 mmHg 59%
    16:00 +26°C° 0 mm 4 m/S 755 mmHg 58%
    17:00 +25°C° 0 mm 3 m/S 755 mmHg 62%
    18:00 +25°C° 0 mm 2 m/S 755 mmHg 65%
    19:00 +24°C° 0 mm 2 m/S 756 mmHg 68%
    20:00 +23°C° 0 mm 2 m/S 756 mmHg 71%
    21:00 +20°C° 0 mm 2 m/S 756 mmHg 74%
    22:00 +19°C° 0 mm 2 m/S 756 mmHg 77%
    23:00 +18°C° 0 mm 2 m/S 757 mmHg 81%

    übermorgen, 20 Juni, Mittwoch

    Zeit Temperatur Niederschläge Wind Luftdruck Luftfeuchtigkeit
    00:00 +19°C° 0 mm 1 m/S 757 mmHg 84%
    01:00 +18°C° 0 mm 1 m/S 757 mmHg 88%
    02:00 +18°C° 0 mm 1 m/S 757 mmHg 89%
    03:00 +18°C° 0 mm 1 m/S 757 mmHg 91%
    04:00 +16°C° 0 mm 1 m/S 757 mmHg 92%
    05:00 +19°C° 0 mm 1 m/S 757 mmHg 87%
    06:00 +20°C° 0 mm 1 m/S 758 mmHg 81%
    07:00 +22°C° 0 mm 1 m/S 758 mmHg 76%
    08:00 +23°C° 0 mm 1 m/S 758 mmHg 71%
    09:00 +25°C° 0 mm 1 m/S 758 mmHg 66%
    10:00 +26°C° 0 mm 1 m/S 757 mmHg 62%
    11:00 +26°C° 0,1 mm 1 m/S 757 mmHg 60%
    12:00 +27°C° 0,1 mm 1 m/S 757 mmHg 59%
    13:00 +27°C° 0,1 mm 1 m/S 756 mmHg 57%
    14:00 +27°C° 0 mm 1 m/S 756 mmHg 57%
    15:00 +28°C° 0 mm 1 m/S 756 mmHg 56%
    16:00 +28°C° 0 mm 1 m/S 756 mmHg 56%
    17:00 +27°C° 0 mm 1 m/S 755 mmHg 61%
    18:00 +26°C° 0 mm 1 m/S 755 mmHg 66%
    19:00 +25°C° 0 mm 1 m/S 755 mmHg 71%
    20:00 +24°C° 0 mm 1 m/S 755 mmHg 73%
    21:00 +23°C° 0 mm 1 m/S 755 mmHg 75%
    22:00 +23°C° 0 mm 1 m/S 755 mmHg 77%
    23:00 +22°C° 0 mm 1 m/S 755 mmHg 78%

    21 Juni, Donnerstag

    Zeit Temperatur Niederschläge Wind Luftdruck Luftfeuchtigkeit
    00:00 +21°C° 0 mm 2 m/S 755 mmHg 79%
    01:00 +21°C° 0 mm 2 m/S 754 mmHg 80%
    02:00 +20°C° 0 mm 2 m/S 754 mmHg 82%
    03:00 +20°C° 0 mm 2 m/S 753 mmHg 83%
    04:00 +19°C° 0 mm 2 m/S 753 mmHg 85%
    05:00 +21°C° 0 mm 2 m/S 753 mmHg 80%
    06:00 +22°C° 0 mm 3 m/S 752 mmHg 76%
    07:00 +25°C° 0 mm 3 m/S 752 mmHg 71%
    08:00 +26°C° 0 mm 3 m/S 752 mmHg 66%
    09:00 +27°C° 0 mm 4 m/S 751 mmHg 60%
    10:00 +29°C° 0 mm 4 m/S 750 mmHg 55%
    11:00 +29°C° 0 mm 4 m/S 750 mmHg 54%
    12:00 +30°C° 0 mm 4 m/S 749 mmHg 52%
    13:00 +32°C° 0 mm 4 m/S 748 mmHg 51%
    14:00 +32°C° 0 mm 4 m/S 747 mmHg 51%
    15:00 +32°C° 0 mm 4 m/S 747 mmHg 52%
    16:00 +32°C° 0 mm 4 m/S 746 mmHg 52%
    17:00 +29°C° 0,7 mm 4 m/S 746 mmHg 60%
    18:00 +28°C° 0,7 mm 4 m/S 745 mmHg 67%
    19:00 +26°C° 0,7 mm 4 m/S 745 mmHg 74%
    20:00 +25°C° 0,6 mm 4 m/S 745 mmHg 79%
    21:00 +22°C° 0,6 mm 5 m/S 746 mmHg 84%
    22:00 +20°C° 0,6 mm 6 m/S 746 mmHg 89%
    23:00 +19°C° 0 mm 6 m/S 747 mmHg 89%

    22 Juni, Freitag

    Zeit Temperatur Niederschläge Wind Luftdruck Luftfeuchtigkeit
    00:00 +16°C° 0 mm 7 m/S 747 mmHg 88%
    01:00 +15°C° 0 mm 8 m/S 748 mmHg 88%
    02:00 +12°C° 0 mm 7 m/S 748 mmHg 88%
    03:00 +11°C° 0 mm 6 m/S 749 mmHg 88%
    04:00 +10°C° 0 mm 5 m/S 749 mmHg 89%
    05:00 +10°C° 0 mm 6 m/S 750 mmHg 83%
    06:00 +11°C° 0 mm 6 m/S 750 mmHg 78%
    07:00 +11°C° 0 mm 6 m/S 750 mmHg 73%
    08:00 +12°C° 0 mm 7 m/S 750 mmHg 69%
    09:00 +14°C° 0 mm 7 m/S 751 mmHg 65%
    10:00 +15°C° 0 mm 7 m/S 751 mmHg 60%
    11:00 +15°C° 0 mm 7 m/S 751 mmHg 57%
    12:00 +16°C° 0 mm 7 m/S 751 mmHg 54%
    13:00 +16°C° 0 mm 8 m/S 751 mmHg 51%
    14:00 +16°C° 0 mm 7 m/S 750 mmHg 51%
    15:00 +16°C° 0 mm 7 m/S 750 mmHg 51%
    16:00 +16°C° 0 mm 7 m/S 750 mmHg 51%
    17:00 +16°C° 0 mm 6 m/S 750 mmHg 56%
    18:00 +15°C° 0 mm 5 m/S 750 mmHg 61%
    19:00 +14°C° 0 mm 4 m/S 750 mmHg 67%
    20:00 +13°C° 0 mm 4 m/S 750 mmHg 69%
    21:00 +12°C° 0 mm 4 m/S 750 mmHg 72%
    22:00 +11°C° 0 mm 4 m/S 750 mmHg 75%
    23:00 +11°C° 0 mm 4 m/S 750 mmHg 76%

    23 Juni, Samstag

    Zeit Temperatur Niederschläge Wind Luftdruck Luftfeuchtigkeit
    00:00 +10°C° 0 mm 5 m/S 750 mmHg 77%
    01:00 +9°C° 0 mm 5 m/S 750 mmHg 78%
    02:00 +9°C° 0 mm 5 m/S 750 mmHg 81%
    03:00 +9°C° 0 mm 5 m/S 750 mmHg 85%
    04:00 +10°C° 0 mm 4 m/S 750 mmHg 88%
    05:00 +10°C° 0,2 mm 5 m/S 750 mmHg 86%
    06:00 +10°C° 0,2 mm 5 m/S 750 mmHg 84%
    07:00 +12°C° 0,2 mm 5 m/S 751 mmHg 82%
    08:00 +13°C° 0,3 mm 6 m/S 751 mmHg 80%
    09:00 +13°C° 0,3 mm 6 m/S 751 mmHg 77%
    10:00 +14°C° 0,3 mm 6 m/S 751 mmHg 74%
    11:00 +15°C° 0,5 mm 6 m/S 751 mmHg 70%
    12:00 +16°C° 0,5 mm 6 m/S 751 mmHg 67%
    13:00 +17°C° 0,5 mm 6 m/S 751 mmHg 63%
    14:00 +17°C° 0,3 mm 6 m/S 751 mmHg 61%
    15:00 +17°C° 0,3 mm 5 m/S 751 mmHg 59%
    16:00 +19°C° 0,3 mm 5 m/S 751 mmHg 58%
    17:00 +17°C° 0,3 mm 5 m/S 751 mmHg 64%
    18:00 +17°C° 0,3 mm 4 m/S 751 mmHg 70%
    19:00 +16°C° 0,3 mm 3 m/S 752 mmHg 77%
    20:00 +14°C° 0 mm 3 m/S 752 mmHg 80%
    21:00 +13°C° 0 mm 3 m/S 752 mmHg 82%
    22:00 +12°C° 0 mm 3 m/S 753 mmHg 85%
    23:00 +11°C° 0 mm 3 m/S 753 mmHg 87%
    Mehr zeigen